Time,TemperatureF,DewpointF,PressureIn,WindDirection,WindDirectionDegrees,WindSpeedMPH,WindSpeedGustMPH,Humidity,HourlyPrecipIn,Conditions,Clouds,dailyrainin,SolarRadiationWatts/m^2,SoftwareType,DateUTC
2013-11-15 00:00:00,81.3,66.1,30.50,NE,43,2.0,-999.0,60,0.00,,,0.00,0,WeatherHawk,2013-11-15 05:00:00,
2013-11-15 00:05:00,81.4,66.6,30.50,ENE,70,4.0,-999.0,61,0.00,,,0.00,0,WeatherHawk,2013-11-15 05:05:00,
2013-11-15 00:10:00,81.5,66.2,30.50,NE,34,4.0,-999.0,60,0.00,,,0.00,0,WeatherHawk,2013-11-15 05:10:00,
2013-11-15 00:15:00,81.6,65.8,30.50,NE,47,4.0,-999.0,59,0.00,,,0.00,0,WeatherHawk,2013-11-15 05:15:00,
2013-11-15 00:20:00,81.6,65.9,30.50,NE,56,4.0,-999.0,59,0.00,,,0.00,0,WeatherHawk,2013-11-15 05:20:00,
2013-11-15 00:25:00,81.9,67.1,30.49,NE,37,6.0,-999.0,61,0.00,,,0.00,0,WeatherHawk,2013-11-15 05:25:00,
2013-11-15 00:30:00,82.0,68.2,30.50,NE,52,4.0,-999.0,63,0.00,,,0.00,0,WeatherHawk,2013-11-15 05:30:00,
2013-11-15 00:35:00,81.8,68.0,30.50,South,172,3.0,-999.0,63,0.00,,,0.00,0,WeatherHawk,2013-11-15 05:35:00,
2013-11-15 00:40:00,78.8,67.3,30.50,East,82,8.0,-999.0,68,0.00,,,0.00,0,WeatherHawk,2013-11-15 05:40:00,
2013-11-15 00:45:00,77.7,67.9,30.49,ENE,64,12.0,-999.0,72,0.00,,,0.00,0,WeatherHawk,2013-11-15 05:45:00,
2013-11-15 00:50:00,77.4,69.3,30.49,North,350,3.0,-999.0,76,0.00,,,0.00,0,WeatherHawk,2013-11-15 05:50:00,
2013-11-15 00:55:00,77.3,69.1,30.48,North,351,3.0,-999.0,76,0.00,,,0.00,0,WeatherHawk,2013-11-15 05:55:00,
2013-11-15 01:00:00,77.6,70.6,30.48,North,4,4.0,-999.0,79,0.00,,,0.00,0,WeatherHawk,2013-11-15 06:00:00,
2013-11-15 01:05:00,77.8,71.1,30.49,NE,54,5.0,-999.0,80,0.00,,,0.00,0,WeatherHawk,2013-11-15 06:05:00,
2013-11-15 01:10:00,78.0,72.0,30.47,NNW,334,1.0,-999.0,82,0.00,,,0.00,0,WeatherHawk,2013-11-15 06:10:00,
2013-11-15 01:15:00,77.8,72.2,30.48,NNE,33,4.0,-999.0,83,0.00,,,0.00,0,WeatherHawk,2013-11-15 06:15:00,
2013-11-15 01:20:00,77.7,72.1,30.47,NNE,32,4.0,-999.0,83,0.00,,,0.00,0,WeatherHawk,2013-11-15 06:20:00,
2013-11-15 01:25:00,77.8,72.2,30.49,NE,39,3.0,-999.0,83,0.00,,,0.00,0,WeatherHawk,2013-11-15 06:25:00,
2013-11-15 01:30:00,77.5,72.3,30.48,SE,130,5.0,-999.0,84,0.00,,,0.00,0,WeatherHawk,2013-11-15 06:30:00,
2013-11-15 01:35:00,77.5,72.0,30.48,East,100,2.0,-999.0,83,0.00,,,0.00,0,WeatherHawk,2013-11-15 06:35:00,
2013-11-15 01:40:00,77.8,71.9,30.48,NNE,12,2.0,-999.0,82,0.00,,,0.00,0,WeatherHawk,2013-11-15 06:40:00,
2013-11-15 01:45:00,78.0,72.0,30.47,North,1,0.0,-999.0,82,0.00,,,0.00,0,WeatherHawk,2013-11-15 06:45:00,
2013-11-15 01:50:00,77.8,71.5,30.48,NNE,19,0.0,-999.0,81,0.00,,,0.00,0,WeatherHawk,2013-11-15 06:50:00,
2013-11-15 01:55:00,77.9,71.9,30.47,NNW,333,0.0,-999.0,82,0.00,,,0.00,0,WeatherHawk,2013-11-15 06:55:00,
2013-11-15 02:00:00,77.9,71.9,30.47,North,351,0.0,-999.0,82,0.00,,,0.00,0,WeatherHawk,2013-11-15 07:00:00,
2013-11-15 02:05:00,78.0,71.6,30.47,SE,129,4.0,-999.0,81,0.00,,,0.00,0,WeatherHawk,2013-11-15 07:05:00,
2013-11-15 02:10:00,77.9,71.6,30.47,NE,41,4.0,-999.0,81,0.00,,,0.00,0,WeatherHawk,2013-11-15 07:10:00,
2013-11-15 02:15:00,78.0,71.7,30.47,NE,45,4.0,-999.0,81,0.00,,,0.00,0,WeatherHawk,2013-11-15 07:15:00,
2013-11-15 02:20:00,77.9,71.9,30.46,North,4,0.0,-999.0,82,0.00,,,0.00,0,WeatherHawk,2013-11-15 07:20:00,
2013-11-15 02:25:00,78.6,72.6,30.46,NNE,22,3.0,-999.0,82,0.00,,,0.00,0,WeatherHawk,2013-11-15 07:25:00,
2013-11-15 02:30:00,78.6,72.6,30.45,ENE,58,0.0,-999.0,82,0.00,,,0.00,0,WeatherHawk,2013-11-15 07:30:00,
2013-11-15 02:35:00,78.7,72.8,30.45,WSW,252,3.0,-999.0,82,0.00,,,0.00,0,WeatherHawk,2013-11-15 07:35:00,
2013-11-15 02:40:00,79.0,73.0,30.45,NE,34,2.0,-999.0,82,0.00,,,0.00,0,WeatherHawk,2013-11-15 07:40:00,
2013-11-15 02:45:00,79.1,73.1,30.46,North,351,2.0,-999.0,82,0.00,,,0.00,0,WeatherHawk,2013-11-15 07:45:00,
2013-11-15 02:50:00,79.3,72.9,30.45,NE,56,2.0,-999.0,81,0.00,,,0.00,0,WeatherHawk,2013-11-15 07:50:00,
2013-11-15 02:55:00,79.1,72.8,30.45,ENE,64,2.0,-999.0,81,0.00,,,0.00,0,WeatherHawk,2013-11-15 07:55:00,
2013-11-15 03:00:00,79.3,72.9,30.45,North,2,3.0,-999.0,81,0.00,,,0.00,0,WeatherHawk,2013-11-15 08:00:00,
2013-11-15 03:05:00,79.4,73.5,30.45,North,1,2.0,-999.0,82,0.00,,,0.00,0,WeatherHawk,2013-11-15 08:05:00,
2013-11-15 03:10:00,79.5,73.1,30.45,NE,35,2.0,-999.0,81,0.00,,,0.00,0,WeatherHawk,2013-11-15 08:10:00,
2013-11-15 03:15:00,79.4,73.1,30.45,NNE,32,3.0,-999.0,81,0.00,,,0.00,0,WeatherHawk,2013-11-15 08:15:00,
2013-11-15 03:20:00,79.4,73.1,30.45,ENE,70,3.0,-999.0,81,0.00,,,0.00,0,WeatherHawk,2013-11-15 08:20:00,
2013-11-15 03:25:00,79.5,73.5,30.42,NNE,33,3.0,-999.0,82,0.00,,,0.00,0,WeatherHawk,2013-11-15 08:25:00,
2013-11-15 03:30:00,79.8,73.1,30.43,East,83,6.0,-999.0,80,0.00,,,0.00,0,WeatherHawk,2013-11-15 08:30:00,
2013-11-15 03:35:00,79.7,72.6,30.44,SSE,147,1.0,-999.0,79,0.00,,,0.00,0,WeatherHawk,2013-11-15 08:35:00,
2013-11-15 03:40:00,79.8,72.7,30.44,ESE,119,4.0,-999.0,79,0.00,,,0.00,0,WeatherHawk,2013-11-15 08:40:00,
2013-11-15 03:45:00,80.1,72.6,30.43,East,82,8.0,-999.0,78,0.00,,,0.00,0,WeatherHawk,2013-11-15 08:45:00,
2013-11-15 03:50:00,80.1,71.9,30.43,East,89,4.0,-999.0,76,0.00,,,0.00,0,WeatherHawk,2013-11-15 08:50:00,
2013-11-15 03:55:00,80.0,71.7,30.43,NW,309,0.0,-999.0,76,0.00,,,0.00,0,WeatherHawk,2013-11-15 08:55:00,
2013-11-15 04:00:00,79.9,72.0,30.43,NNE,25,0.0,-999.0,77,0.00,,,0.00,0,WeatherHawk,2013-11-15 09:00:00,
2013-11-15 04:05:00,79.9,72.4,30.44,NNE,15,1.0,-999.0,78,0.00,,,0.00,0,WeatherHawk,2013-11-15 09:05:00,
2013-11-15 04:10:00,79.9,72.4,30.43,NNE,24,2.0,-999.0,78,0.00,,,0.00,0,WeatherHawk,2013-11-15 09:10:00,
2013-11-15 04:15:00,79.9,72.8,30.43,NE,55,2.0,-999.0,79,0.00,,,0.00,0,WeatherHawk,2013-11-15 09:15:00,
2013-11-15 04:20:00,79.8,72.7,30.44,NNW,341,1.0,-999.0,79,0.00,,,0.00,0,WeatherHawk,2013-11-15 09:20:00,
2013-11-15 04:25:00,80.0,72.5,30.49,NE,44,2.0,-999.0,78,0.00,,,0.00,0,WeatherHawk,2013-11-15 09:25:00,
2013-11-15 04:30:00,80.0,72.5,30.44,NE,51,3.0,-999.0,78,0.00,,,0.00,0,WeatherHawk,2013-11-15 09:30:00,
2013-11-15 04:35:00,79.8,72.3,30.44,NE,36,2.0,-999.0,78,0.00,,,0.00,0,WeatherHawk,2013-11-15 09:35:00,
2013-11-15 04:40:00,79.7,72.6,30.43,East,98,0.0,-999.0,79,0.00,,,0.00,0,WeatherHawk,2013-11-15 09:40:00,
2013-11-15 04:45:00,80.0,72.9,30.44,North,351,0.0,-999.0,79,0.00,,,0.00,0,WeatherHawk,2013-11-15 09:45:00,
2013-11-15 04:50:00,80.1,73.4,30.44,NE,56,3.0,-999.0,80,0.00,,,0.00,0,WeatherHawk,2013-11-15 09:50:00,
2013-11-15 04:55:00,80.2,73.1,30.43,NNE,31,3.0,-999.0,79,0.00,,,0.00,0,WeatherHawk,2013-11-15 09:55:00,
2013-11-15 05:00:00,80.5,73.4,30.44,North,8,3.0,-999.0,79,0.00,,,0.00,0,WeatherHawk,2013-11-15 10:00:00,
2013-11-15 05:05:00,80.6,73.1,30.43,NNW,345,0.0,-999.0,78,0.00,,,0.00,0,WeatherHawk,2013-11-15 10:05:00,
2013-11-15 05:10:00,80.7,73.2,30.43,NNE,22,4.0,-999.0,78,0.00,,,0.00,0,WeatherHawk,2013-11-15 10:10:00,
2013-11-15 05:15:00,80.6,72.7,30.45,NNW,337,3.0,-999.0,77,0.00,,,0.00,0,WeatherHawk,2013-11-15 10:15:00,
2013-11-15 05:20:00,80.7,72.4,30.44,NE,35,0.0,-999.0,76,0.00,,,0.00,0,WeatherHawk,2013-11-15 10:20:00,
2013-11-15 05:25:00,80.8,72.1,30.44,NNE,32,4.0,-999.0,75,0.00,,,0.00,0,WeatherHawk,2013-11-15 10:25:00,
2013-11-15 05:30:00,80.8,71.7,30.45,NNE,18,1.0,-999.0,74,0.00,,,0.00,0,WeatherHawk,2013-11-15 10:30:00,
2013-11-15 05:35:00,80.7,71.6,30.45,NNE,18,0.0,-999.0,74,0.00,,,0.00,0,WeatherHawk,2013-11-15 10:35:00,
2013-11-15 05:40:00,80.6,71.1,30.45,NNE,25,5.0,-999.0,73,0.00,,,0.00,0,WeatherHawk,2013-11-15 10:40:00,
2013-11-15 05:45:00,80.6,71.5,30.44,North,10,1.0,-999.0,74,0.00,,,0.00,0,WeatherHawk,2013-11-15 10:45:00,
2013-11-15 05:50:00,80.7,71.6,30.45,NE,46,4.0,-999.0,74,0.00,,,0.00,0,WeatherHawk,2013-11-15 10:50:00,
2013-11-15 05:55:00,80.5,71.1,30.44,NNE,27,2.0,-999.0,73,0.00,,,0.00,0,WeatherHawk,2013-11-15 10:55:00,
2013-11-15 06:00:00,80.5,71.1,30.44,NE,49,3.0,-999.0,73,0.00,,,0.00,1,WeatherHawk,2013-11-15 11:00:00,
2013-11-15 06:05:00,80.5,71.5,30.46,East,89,4.0,-999.0,74,0.00,,,0.00,0,WeatherHawk,2013-11-15 11:05:00,
2013-11-15 06:10:00,80.5,71.8,30.46,NNE,16,2.0,-999.0,75,0.00,,,0.00,1,WeatherHawk,2013-11-15 11:10:00,
2013-11-15 06:15:00,80.5,71.8,30.46,NE,37,4.0,-999.0,75,0.00,,,0.00,0,WeatherHawk,2013-11-15 11:15:00,
2013-11-15 06:20:00,80.3,72.1,30.46,NE,44,0.0,-999.0,76,0.00,,,0.00,0,WeatherHawk,2013-11-15 11:20:00,
2013-11-15 06:25:00,80.3,72.1,30.47,North,6,0.0,-999.0,76,0.00,,,0.00,0,WeatherHawk,2013-11-15 11:25:00,
2013-11-15 06:30:00,80.4,72.5,30.46,NNE,26,1.0,-999.0,77,0.00,,,0.00,1,WeatherHawk,2013-11-15 11:30:00,
2013-11-15 06:35:00,80.5,72.7,30.46,NNE,23,4.0,-999.0,77,0.00,,,0.00,4,WeatherHawk,2013-11-15 11:35:00,
2013-11-15 06:40:00,80.6,72.3,30.46,NNE,28,1.0,-999.0,76,0.00,,,0.00,10,WeatherHawk,2013-11-15 11:40:00,
2013-11-15 06:45:00,80.8,72.5,30.47,NNE,13,3.0,-999.0,76,0.00,,,0.00,18,WeatherHawk,2013-11-15 11:45:00,
2013-11-15 06:50:00,81.0,72.3,30.46,NE,51,2.0,-999.0,75,0.00,,,0.00,30,WeatherHawk,2013-11-15 11:50:00,
2013-11-15 06:55:00,81.0,72.3,30.47,ENE,66,3.0,-999.0,75,0.00,,,0.00,37,WeatherHawk,2013-11-15 11:55:00,
2013-11-15 07:00:00,81.1,71.6,30.47,NE,42,2.0,-999.0,73,0.00,,,0.00,41,WeatherHawk,2013-11-15 12:00:00,
2013-11-15 07:05:00,81.2,71.3,30.47,NNE,21,3.0,-999.0,72,0.00,,,0.00,48,WeatherHawk,2013-11-15 12:05:00,
2013-11-15 07:10:00,81.2,70.9,30.47,ENE,70,5.0,-999.0,71,0.00,,,0.00,58,WeatherHawk,2013-11-15 12:10:00,
2013-11-15 07:15:00,81.3,71.0,30.48,NE,41,0.0,-999.0,71,0.00,,,0.00,64,WeatherHawk,2013-11-15 12:15:00,
2013-11-15 07:20:00,81.2,70.9,30.48,ENE,71,1.0,-999.0,71,0.00,,,0.00,79,WeatherHawk,2013-11-15 12:20:00,
2013-11-15 07:25:00,81.4,70.7,30.47,SE,137,2.0,-999.0,70,0.00,,,0.00,92,WeatherHawk,2013-11-15 12:25:00,
2013-11-15 07:30:00,81.8,69.8,30.48,North,351,1.0,-999.0,67,0.00,,,0.00,100,WeatherHawk,2013-11-15 12:30:00,
2013-11-15 07:35:00,81.8,69.7,30.48,NNE,15,3.0,-999.0,67,0.00,,,0.00,109,WeatherHawk,2013-11-15 12:35:00,
2013-11-15 07:40:00,82.0,69.1,30.49,NE,43,5.0,-999.0,65,0.00,,,0.00,119,WeatherHawk,2013-11-15 12:40:00,
2013-11-15 07:45:00,82.3,69.3,30.48,NE,39,3.0,-999.0,65,0.00,,,0.00,125,WeatherHawk,2013-11-15 12:45:00,
2013-11-15 07:50:00,82.4,69.4,30.48,ENE,65,5.0,-999.0,65,0.00,,,0.00,128,WeatherHawk,2013-11-15 12:50:00,
2013-11-15 07:55:00,82.2,69.3,30.48,ENE,72,3.0,-999.0,65,0.00,,,0.00,120,WeatherHawk,2013-11-15 12:55:00,
2013-11-15 08:00:00,82.3,68.9,30.48,NE,53,6.0,-999.0,64,0.00,,,0.00,134,WeatherHawk,2013-11-15 13:00:00,
2013-11-15 08:05:00,82.5,68.6,30.48,SSE,148,3.0,-999.0,63,0.00,,,0.00,146,WeatherHawk,2013-11-15 13:05:00,
2013-11-15 08:10:00,82.6,68.2,30.48,East,84,4.0,-999.0,62,0.00,,,0.00,146,WeatherHawk,2013-11-15 13:10:00,
2013-11-15 08:15:00,82.7,68.3,30.48,SE,125,4.0,-999.0,62,0.00,,,0.00,153,WeatherHawk,2013-11-15 13:15:00,
2013-11-15 08:20:00,83.0,68.1,30.48,NNE,23,3.0,-999.0,61,0.00,,,0.00,155,WeatherHawk,2013-11-15 13:20:00,
2013-11-15 08:25:00,83.2,68.3,30.48,NNW,341,2.0,-999.0,61,0.00,,,0.00,160,WeatherHawk,2013-11-15 13:25:00,
2013-11-15 08:30:00,83.4,68.1,30.49,North,0,1.0,-999.0,60,0.00,,,0.00,170,WeatherHawk,2013-11-15 13:30:00,
2013-11-15 08:35:00,83.6,67.7,30.50,North,351,0.0,-999.0,59,0.00,,,0.00,182,WeatherHawk,2013-11-15 13:35:00,
2013-11-15 08:40:00,84.0,67.6,30.49,NW,326,0.0,-999.0,58,0.00,,,0.00,202,WeatherHawk,2013-11-15 13:40:00,
2013-11-15 08:45:00,83.8,66.9,30.49,NNW,339,5.0,-999.0,57,0.00,,,0.00,199,WeatherHawk,2013-11-15 13:45:00,
2013-11-15 08:50:00,84.2,66.7,30.49,WSW,257,0.0,-999.0,56,0.00,,,0.00,202,WeatherHawk,2013-11-15 13:50:00,
2013-11-15 08:55:00,83.7,65.8,30.50,East,96,4.0,-999.0,55,0.00,,,0.00,219,WeatherHawk,2013-11-15 13:55:00,
2013-11-15 09:00:00,84.2,65.1,30.49,NE,47,3.0,-999.0,53,0.00,,,0.00,227,WeatherHawk,2013-11-15 14:00:00,
2013-11-15 09:05:00,84.3,65.8,30.50,NE,34,3.0,-999.0,54,0.00,,,0.00,235,WeatherHawk,2013-11-15 14:05:00,
2013-11-15 09:10:00,84.1,64.0,30.50,NE,35,5.0,-999.0,51,0.00,,,0.00,228,WeatherHawk,2013-11-15 14:10:00,
2013-11-15 09:15:00,84.5,64.4,30.51,NNE,17,3.0,-999.0,51,0.00,,,0.00,242,WeatherHawk,2013-11-15 14:15:00,
2013-11-15 09:20:00,84.2,63.5,30.50,NE,52,5.0,-999.0,50,0.00,,,0.00,248,WeatherHawk,2013-11-15 14:20:00,
2013-11-15 09:25:00,85.1,64.4,30.50,NNW,347,1.0,-999.0,50,0.00,,,0.00,308,WeatherHawk,2013-11-15 14:25:00,
2013-11-15 09:30:00,86.0,64.5,30.51,ESE,120,1.0,-999.0,49,0.00,,,0.00,338,WeatherHawk,2013-11-15 14:30:00,
2013-11-15 09:35:00,85.9,63.3,30.49,NNE,21,2.0,-999.0,47,0.00,,,0.00,402,WeatherHawk,2013-11-15 14:35:00,
2013-11-15 09:40:00,85.7,63.2,30.50,NE,39,2.0,-999.0,47,0.00,,,0.00,319,WeatherHawk,2013-11-15 14:40:00,
2013-11-15 09:45:00,87.0,63.0,30.51,SSW,204,3.0,-999.0,45,0.00,,,0.00,366,WeatherHawk,2013-11-15 14:45:00,
2013-11-15 09:50:00,85.5,61.1,30.50,NNE,19,7.0,-999.0,44,0.00,,,0.00,496,WeatherHawk,2013-11-15 14:50:00,
2013-11-15 09:55:00,85.4,59.7,30.50,NE,55,8.0,-999.0,42,0.00,,,0.00,517,WeatherHawk,2013-11-15 14:55:00,
2013-11-15 10:00:00,85.6,60.5,30.50,NNE,27,5.0,-999.0,43,0.00,,,0.00,536,WeatherHawk,2013-11-15 15:00:00,
2013-11-15 10:05:00,87.5,61.6,30.51,North,8,4.0,-999.0,42,0.00,,,0.00,642,WeatherHawk,2013-11-15 15:05:00,
2013-11-15 10:10:00,85.3,58.9,30.49,NE,45,13.0,-999.0,41,0.00,,,0.00,311,WeatherHawk,2013-11-15 15:10:00,
2013-11-15 10:15:00,85.7,61.3,30.49,NE,50,4.0,-999.0,44,0.00,,,0.00,285,WeatherHawk,2013-11-15 15:15:00,
2013-11-15 10:20:00,85.6,61.8,30.50,SE,128,5.0,-999.0,45,0.00,,,0.00,297,WeatherHawk,2013-11-15 15:20:00,
2013-11-15 10:25:00,86.9,60.3,30.51,SSW,203,6.0,-999.0,41,0.00,,,0.00,344,WeatherHawk,2013-11-15 15:25:00,
2013-11-15 10:30:00,86.2,60.3,30.49,NE,38,6.0,-999.0,42,0.00,,,0.00,583,WeatherHawk,2013-11-15 15:30:00,
2013-11-15 10:35:00,85.7,60.6,30.49,NNE,17,4.0,-999.0,43,0.00,,,0.00,326,WeatherHawk,2013-11-15 15:35:00,
2013-11-15 10:40:00,85.9,60.7,30.49,East,84,7.0,-999.0,43,0.00,,,0.00,400,WeatherHawk,2013-11-15 15:40:00,
2013-11-15 10:45:00,86.2,60.4,30.50,NE,34,4.0,-999.0,42,0.00,,,0.00,270,WeatherHawk,2013-11-15 15:45:00,
2013-11-15 10:50:00,85.8,60.0,30.48,West,276,6.0,-999.0,42,0.00,,,0.00,266,WeatherHawk,2013-11-15 15:50:00,
2013-11-15 10:55:00,87.0,59.8,30.49,ESE,112,7.0,-999.0,40,0.00,,,0.00,529,WeatherHawk,2013-11-15 15:55:00,
2013-11-15 11:00:00,85.9,60.2,30.49,SE,125,3.0,-999.0,42,0.00,,,0.00,212,WeatherHawk,2013-11-15 16:00:00,
2013-11-15 11:05:00,85.6,59.8,30.49,ESE,116,7.0,-999.0,42,0.00,,,0.00,229,WeatherHawk,2013-11-15 16:05:00,
2013-11-15 11:10:00,86.3,58.3,30.48,ESE,119,8.0,-999.0,39,0.00,,,0.00,308,WeatherHawk,2013-11-15 16:10:00,
2013-11-15 11:15:00,86.3,59.1,30.50,SE,143,6.0,-999.0,40,0.00,,,0.00,551,WeatherHawk,2013-11-15 16:15:00,
2013-11-15 11:20:00,89.9,60.9,30.50,WNW,282,1.0,-999.0,38,0.00,,,0.00,956,WeatherHawk,2013-11-15 16:20:00,
2013-11-15 11:25:00,89.5,58.2,30.47,ESE,114,2.0,-999.0,35,0.00,,,0.00,847,WeatherHawk,2013-11-15 16:25:00,
2013-11-15 11:30:00,87.3,54.6,30.47,East,101,5.0,-999.0,33,0.00,,,0.00,283,WeatherHawk,2013-11-15 16:30:00,
2013-11-15 11:35:00,87.6,55.7,30.48,ESE,117,3.0,-999.0,34,0.00,,,0.00,822,WeatherHawk,2013-11-15 16:35:00,
2013-11-15 11:40:00,87.1,55.3,30.48,SE,136,7.0,-999.0,34,0.00,,,0.00,545,WeatherHawk,2013-11-15 16:40:00,
2013-11-15 11:45:00,86.6,54.9,30.46,South,179,5.0,-999.0,34,0.00,,,0.00,215,WeatherHawk,2013-11-15 16:45:00,
2013-11-15 11:50:00,86.9,56.7,30.46,East,92,6.0,-999.0,36,0.00,,,0.00,834,WeatherHawk,2013-11-15 16:50:00,
2013-11-15 11:55:00,87.8,54.3,30.46,East,80,2.0,-999.0,32,0.00,,,0.00,830,WeatherHawk,2013-11-15 16:55:00,
2013-11-15 12:00:00,88.3,54.6,30.47,NNE,25,3.0,-999.0,32,0.00,,,0.00,859,WeatherHawk,2013-11-15 17:00:00,
2013-11-15 12:05:00,87.6,52.3,30.44,East,99,8.0,-999.0,30,0.00,,,0.00,895,WeatherHawk,2013-11-15 17:05:00,
2013-11-15 12:10:00,89.7,55.0,30.47,WSW,250,4.0,-999.0,31,0.00,,,0.00,834,WeatherHawk,2013-11-15 17:10:00,
2013-11-15 12:15:00,88.2,54.6,30.46,SE,131,5.0,-999.0,32,0.00,,,0.00,363,WeatherHawk,2013-11-15 17:15:00,
2013-11-15 12:20:00,87.3,53.8,30.44,East,92,3.0,-999.0,32,0.00,,,0.00,182,WeatherHawk,2013-11-15 17:20:00,
2013-11-15 12:25:00,88.5,53.1,30.44,SE,126,3.0,-999.0,30,0.00,,,0.00,862,WeatherHawk,2013-11-15 17:25:00,
2013-11-15 12:30:00,88.9,53.4,30.44,SE,137,6.0,-999.0,30,0.00,,,0.00,844,WeatherHawk,2013-11-15 17:30:00,
2013-11-15 12:35:00,87.1,51.9,30.45,ESE,115,6.0,-999.0,30,0.00,,,0.00,892,WeatherHawk,2013-11-15 17:35:00,
2013-11-15 12:40:00,86.4,53.9,30.43,East,92,7.0,-999.0,33,0.00,,,0.00,248,WeatherHawk,2013-11-15 17:40:00,
2013-11-15 12:45:00,86.4,53.0,30.45,SE,129,11.0,-999.0,32,0.00,,,0.00,976,WeatherHawk,2013-11-15 17:45:00,
2013-11-15 12:50:00,87.2,53.7,30.43,SE,142,5.0,-999.0,32,0.00,,,0.00,847,WeatherHawk,2013-11-15 17:50:00,
2013-11-15 12:55:00,88.4,53.8,30.43,SE,127,3.0,-999.0,31,0.00,,,0.00,764,WeatherHawk,2013-11-15 17:55:00,
2013-11-15 13:00:00,91.2,55.4,30.42,NE,38,1.0,-999.0,30,0.00,,,0.00,844,WeatherHawk,2013-11-15 18:00:00,
2013-11-15 13:05:00,86.8,51.6,30.42,SE,128,3.0,-999.0,30,0.00,,,0.00,278,WeatherHawk,2013-11-15 18:05:00,
2013-11-15 13:10:00,87.8,54.2,30.43,North,11,3.0,-999.0,32,0.00,,,0.00,939,WeatherHawk,2013-11-15 18:10:00,
2013-11-15 13:15:00,86.8,52.5,30.42,ESE,122,7.0,-999.0,31,0.00,,,0.00,928,WeatherHawk,2013-11-15 18:15:00,
2013-11-15 13:20:00,90.7,54.9,30.42,WSW,248,0.0,-999.0,30,0.00,,,0.00,910,WeatherHawk,2013-11-15 18:20:00,
2013-11-15 13:25:00,87.4,53.9,30.43,SE,134,3.0,-999.0,32,0.00,,,0.00,843,WeatherHawk,2013-11-15 18:25:00,
2013-11-15 13:30:00,88.7,54.1,30.43,South,173,3.0,-999.0,31,0.00,,,0.00,842,WeatherHawk,2013-11-15 18:30:00,
2013-11-15 13:35:00,85.7,50.7,30.42,ENE,68,7.0,-999.0,30,0.00,,,0.00,346,WeatherHawk,2013-11-15 18:35:00,
2013-11-15 13:40:00,88.6,53.1,30.41,ESE,119,3.0,-999.0,30,0.00,,,0.00,659,WeatherHawk,2013-11-15 18:40:00,
2013-11-15 13:45:00,89.9,51.4,30.41,SE,137,4.0,-999.0,27,0.00,,,0.00,851,WeatherHawk,2013-11-15 18:45:00,
2013-11-15 13:50:00,88.4,49.1,30.41,ESE,104,6.0,-999.0,26,0.00,,,0.00,838,WeatherHawk,2013-11-15 18:50:00,
2013-11-15 13:55:00,91.6,52.9,30.40,SE,127,2.0,-999.0,27,0.00,,,0.00,319,WeatherHawk,2013-11-15 18:55:00,
2013-11-15 14:00:00,86.7,47.7,30.41,ESE,103,7.0,-999.0,26,0.00,,,0.00,793,WeatherHawk,2013-11-15 19:00:00,
2013-11-15 14:05:00,88.1,50.9,30.40,ESE,113,4.0,-999.0,28,0.00,,,0.00,820,WeatherHawk,2013-11-15 19:05:00,
2013-11-15 14:10:00,86.8,51.6,30.40,SSW,201,5.0,-999.0,30,0.00,,,0.00,346,WeatherHawk,2013-11-15 19:10:00,
2013-11-15 14:15:00,85.2,52.8,30.40,East,99,6.0,-999.0,33,0.00,,,0.00,124,WeatherHawk,2013-11-15 19:15:00,
2013-11-15 14:20:00,83.1,53.3,30.41,SSE,160,9.0,-999.0,36,0.00,,,0.00,158,WeatherHawk,2013-11-15 19:20:00,
2013-11-15 14:25:00,82.0,51.7,30.42,SSE,167,11.0,-999.0,35,0.00,,,0.00,201,WeatherHawk,2013-11-15 19:25:00,
2013-11-15 14:30:00,82.7,53.8,30.41,ESE,108,6.0,-999.0,37,0.00,,,0.00,250,WeatherHawk,2013-11-15 19:30:00,
2013-11-15 14:35:00,83.1,54.1,30.40,SSW,195,4.0,-999.0,37,0.00,,,0.00,523,WeatherHawk,2013-11-15 19:35:00,
2013-11-15 14:40:00,84.8,54.9,30.40,SE,132,2.0,-999.0,36,0.00,,,0.00,521,WeatherHawk,2013-11-15 19:40:00,
2013-11-15 14:45:00,86.3,53.8,30.40,SE,141,1.0,-999.0,33,0.00,,,0.00,379,WeatherHawk,2013-11-15 19:45:00,
2013-11-15 14:50:00,85.3,51.2,30.41,SE,141,3.0,-999.0,31,0.00,,,0.00,534,WeatherHawk,2013-11-15 19:50:00,
2013-11-15 14:55:00,85.0,52.7,30.41,East,97,5.0,-999.0,33,0.00,,,0.00,468,WeatherHawk,2013-11-15 19:55:00,
2013-11-15 15:00:00,86.1,56.0,30.40,SE,142,3.0,-999.0,36,0.00,,,0.00,278,WeatherHawk,2013-11-15 20:00:00,
2013-11-15 15:05:00,83.7,52.3,30.40,SSE,149,13.0,-999.0,34,0.00,,,0.00,101,WeatherHawk,2013-11-15 20:05:00,
2013-11-15 15:10:00,80.9,54.3,30.40,North,9,7.0,-999.0,40,0.00,,,0.00,55,WeatherHawk,2013-11-15 20:10:00,
2013-11-15 15:15:00,79.3,61.2,30.40,NNE,28,3.0,-999.0,54,0.00,,,0.00,108,WeatherHawk,2013-11-15 20:15:00,
2013-11-15 15:20:00,78.1,64.9,30.41,ESE,114,3.0,-999.0,64,0.00,,,0.00,148,WeatherHawk,2013-11-15 20:20:00,
2013-11-15 15:25:00,80.0,67.1,30.41,South,191,1.0,-999.0,65,0.00,,,0.00,189,WeatherHawk,2013-11-15 20:25:00,
2013-11-15 15:30:00,80.8,65.6,30.41,SE,144,2.0,-999.0,60,0.00,,,0.00,245,WeatherHawk,2013-11-15 20:30:00,
2013-11-15 15:35:00,82.4,66.6,30.41,SSW,201,0.0,-999.0,59,0.00,,,0.00,250,WeatherHawk,2013-11-15 20:35:00,
2013-11-15 15:40:00,81.8,64.0,30.40,ESE,122,0.0,-999.0,55,0.00,,,0.00,258,WeatherHawk,2013-11-15 20:40:00,
2013-11-15 15:45:00,82.7,64.8,30.39,SSE,148,0.0,-999.0,55,0.00,,,0.00,233,WeatherHawk,2013-11-15 20:45:00,
2013-11-15 15:50:00,82.8,63.3,30.40,SSE,168,0.0,-999.0,52,0.00,,,0.00,225,WeatherHawk,2013-11-15 20:50:00,
2013-11-15 15:55:00,82.6,63.7,30.40,ESE,116,2.0,-999.0,53,0.00,,,0.00,199,WeatherHawk,2013-11-15 20:55:00,
2013-11-15 16:00:00,82.9,64.6,30.40,SSE,150,0.0,-999.0,54,0.00,,,0.00,176,WeatherHawk,2013-11-15 21:00:00,
2013-11-15 16:05:00,83.5,65.1,30.40,ENE,66,0.0,-999.0,54,0.00,,,0.00,160,WeatherHawk,2013-11-15 21:05:00,
2013-11-15 16:10:00,83.7,64.8,30.40,SSW,194,0.0,-999.0,53,0.00,,,0.00,154,WeatherHawk,2013-11-15 21:10:00,
2013-11-15 16:15:00,83.3,65.4,30.40,ESE,122,2.0,-999.0,55,0.00,,,0.00,145,WeatherHawk,2013-11-15 21:15:00,
2013-11-15 16:20:00,83.1,67.3,30.47,NNE,29,0.0,-999.0,59,0.00,,,0.00,129,WeatherHawk,2013-11-15 21:20:00,
2013-11-15 16:25:00,82.9,68.0,30.41,North,11,1.0,-999.0,61,0.00,,,0.00,106,WeatherHawk,2013-11-15 21:25:00,
2013-11-15 16:30:00,82.8,68.4,30.40,NE,40,1.0,-999.0,62,0.00,,,0.00,64,WeatherHawk,2013-11-15 21:30:00,
2013-11-15 16:35:00,82.1,66.9,30.40,ENE,66,5.0,-999.0,60,0.00,,,0.00,39,WeatherHawk,2013-11-15 21:35:00,
2013-11-15 16:40:00,80.5,64.4,30.41,ENE,60,15.0,-999.0,58,0.00,,,0.00,50,WeatherHawk,2013-11-15 21:40:00,
2013-11-15 16:45:00,79.7,64.1,30.41,NE,48,9.0,-999.0,59,0.00,,,0.00,52,WeatherHawk,2013-11-15 21:45:00,
2013-11-15 16:50:00,80.2,63.0,30.41,NE,41,6.0,-999.0,56,0.00,,,0.00,58,WeatherHawk,2013-11-15 21:50:00,
2013-11-15 16:55:00,80.3,63.1,30.42,NE,40,5.0,-999.0,56,0.00,,,0.00,49,WeatherHawk,2013-11-15 21:55:00,
2013-11-15 17:00:00,80.5,63.3,30.41,ENE,60,0.0,-999.0,56,0.00,,,0.00,53,WeatherHawk,2013-11-15 22:00:00,
2013-11-15 17:05:00,80.6,61.8,30.42,ESE,111,3.0,-999.0,53,0.00,,,0.00,55,WeatherHawk,2013-11-15 22:05:00,
2013-11-15 17:10:00,80.9,62.7,30.41,East,90,0.0,-999.0,54,0.00,,,0.00,64,WeatherHawk,2013-11-15 22:10:00,
2013-11-15 17:15:00,80.6,61.9,30.40,East,95,1.0,-999.0,53,0.00,,,0.00,43,WeatherHawk,2013-11-15 22:15:00,
2013-11-15 17:20:00,80.5,62.3,30.41,North,4,3.0,-999.0,54,0.00,,,0.00,32,WeatherHawk,2013-11-15 22:20:00,
2013-11-15 17:25:00,80.3,64.1,30.41,NE,36,1.0,-999.0,58,0.00,,,0.00,24,WeatherHawk,2013-11-15 22:25:00,
2013-11-15 17:30:00,80.3,65.6,30.42,NE,53,4.0,-999.0,61,0.00,,,0.00,17,WeatherHawk,2013-11-15 22:30:00,
2013-11-15 17:35:00,80.5,67.2,30.42,East,92,3.0,-999.0,64,0.00,,,0.00,12,WeatherHawk,2013-11-15 22:35:00,
2013-11-15 17:40:00,80.4,67.6,30.41,NE,36,0.0,-999.0,65,0.00,,,0.00,8,WeatherHawk,2013-11-15 22:40:00,
2013-11-15 17:45:00,80.3,68.7,30.42,East,90,3.0,-999.0,68,0.00,,,0.00,2,WeatherHawk,2013-11-15 22:45:00,
2013-11-15 17:50:00,80.2,69.9,30.41,NNE,21,1.0,-999.0,71,0.00,,,0.00,2,WeatherHawk,2013-11-15 22:50:00,
2013-11-15 17:55:00,80.1,70.6,30.42,NNE,24,3.0,-999.0,73,0.00,,,0.00,0,WeatherHawk,2013-11-15 22:55:00,
2013-11-15 18:00:00,80.2,71.5,30.42,NE,38,0.0,-999.0,75,0.00,,,0.00,0,WeatherHawk,2013-11-15 23:00:00,
2013-11-15 18:05:00,80.2,71.2,30.42,ESE,114,2.0,-999.0,74,0.00,,,0.00,0,WeatherHawk,2013-11-15 23:05:00,
2013-11-15 18:10:00,80.4,71.3,30.42,SE,135,1.0,-999.0,74,0.00,,,0.00,0,WeatherHawk,2013-11-15 23:10:00,
2013-11-15 18:15:00,80.5,71.5,30.42,ESE,112,0.0,-999.0,74,0.00,,,0.00,0,WeatherHawk,2013-11-15 23:15:00,
2013-11-15 18:20:00,80.3,71.3,30.42,ESE,106,0.0,-999.0,74,0.00,,,0.00,0,WeatherHawk,2013-11-15 23:20:00,
2013-11-15 18:25:00,80.3,71.6,30.42,ESE,110,0.0,-999.0,75,0.00,,,0.00,0,WeatherHawk,2013-11-15 23:25:00,
2013-11-15 18:30:00,80.6,72.3,30.42,East,81,0.0,-999.0,76,0.00,,,0.00,0,WeatherHawk,2013-11-15 23:30:00,
2013-11-15 18:35:00,80.7,72.0,30.42,ESE,108,2.0,-999.0,75,0.00,,,0.00,0,WeatherHawk,2013-11-15 23:35:00,
2013-11-15 18:40:00,80.9,72.2,30.42,ESE,112,0.0,-999.0,75,0.00,,,0.00,0,WeatherHawk,2013-11-15 23:40:00,
2013-11-15 18:45:00,80.9,72.2,30.43,ESE,118,0.0,-999.0,75,0.00,,,0.00,0,WeatherHawk,2013-11-15 23:45:00,
2013-11-15 18:50:00,81.3,72.6,30.42,SE,124,0.0,-999.0,75,0.00,,,0.00,0,WeatherHawk,2013-11-15 23:50:00,
2013-11-15 18:55:00,80.9,71.8,30.43,ESE,120,0.0,-999.0,74,0.00,,,0.00,0,WeatherHawk,2013-11-15 23:55:00,
2013-11-15 19:00:00,81.1,72.4,30.44,ESE,112,0.0,-999.0,75,0.00,,,0.00,0,WeatherHawk,2013-11-16 00:00:00,
2013-11-15 19:05:00,81.5,72.4,30.44,ESE,112,0.0,-999.0,74,0.00,,,0.00,0,WeatherHawk,2013-11-16 00:05:00,
2013-11-15 19:10:00,81.1,72.8,30.44,ESE,112,0.0,-999.0,76,0.00,,,0.00,0,WeatherHawk,2013-11-16 00:10:00,
2013-11-15 19:15:00,81.0,72.3,30.45,ESE,112,0.0,-999.0,75,0.00,,,0.00,0,WeatherHawk,2013-11-16 00:15:00,
2013-11-15 19:20:00,81.1,72.8,30.45,NE,45,0.0,-999.0,76,0.00,,,0.00,0,WeatherHawk,2013-11-16 00:20:00,
2013-11-15 19:25:00,81.5,72.8,30.44,NE,39,0.0,-999.0,75,0.00,,,0.00,0,WeatherHawk,2013-11-16 00:25:00,
2013-11-15 19:30:00,81.1,72.8,30.44,NE,39,0.0,-999.0,76,0.00,,,0.00,0,WeatherHawk,2013-11-16 00:30:00,
2013-11-15 19:35:00,80.7,72.8,30.45,NE,47,0.0,-999.0,77,0.00,,,0.00,0,WeatherHawk,2013-11-16 00:35:00,
2013-11-15 19:40:00,80.8,73.7,30.45,NE,47,0.0,-999.0,79,0.00,,,0.00,0,WeatherHawk,2013-11-16 00:40:00,
2013-11-15 19:45:00,81.1,74.0,30.45,ENE,59,2.0,-999.0,79,0.00,,,0.00,0,WeatherHawk,2013-11-16 00:45:00,
2013-11-15 19:50:00,81.4,73.5,30.46,NNE,33,0.0,-999.0,77,0.00,,,0.00,0,WeatherHawk,2013-11-16 00:50:00,
2013-11-15 19:55:00,81.0,72.7,30.46,ENE,72,0.0,-999.0,76,0.00,,,0.00,0,WeatherHawk,2013-11-16 00:55:00,
2013-11-15 20:00:00,81.1,73.2,30.46,ENE,60,0.0,-999.0,77,0.00,,,0.00,0,WeatherHawk,2013-11-16 01:00:00,
2013-11-15 20:05:00,81.4,72.7,30.45,NE,46,0.0,-999.0,75,0.00,,,0.00,1,WeatherHawk,2013-11-16 01:05:00,
2013-11-15 20:10:00,81.2,72.5,30.46,NE,46,0.0,-999.0,75,0.00,,,0.00,0,WeatherHawk,2013-11-16 01:10:00,
2013-11-15 20:15:00,80.8,72.5,30.46,NE,46,0.0,-999.0,76,0.00,,,0.00,0,WeatherHawk,2013-11-16 01:15:00,
2013-11-15 20:20:00,80.8,72.9,30.46,ESE,109,0.0,-999.0,77,0.00,,,0.00,0,WeatherHawk,2013-11-16 01:20:00,
2013-11-15 20:25:00,81.2,73.3,30.46,ESE,109,0.0,-999.0,77,0.00,,,0.00,0,WeatherHawk,2013-11-16 01:25:00,
2013-11-15 20:30:00,81.3,73.0,30.47,NE,39,0.0,-999.0,76,0.00,,,0.00,0,WeatherHawk,2013-11-16 01:30:00,
2013-11-15 20:35:00,81.4,72.7,30.47,NE,36,0.0,-999.0,75,0.00,,,0.00,0,WeatherHawk,2013-11-16 01:35:00,
2013-11-15 20:40:00,81.6,71.6,30.46,NE,46,2.0,-999.0,72,0.00,,,0.00,0,WeatherHawk,2013-11-16 01:40:00,
2013-11-15 20:45:00,81.4,71.9,30.47,NE,50,0.0,-999.0,73,0.00,,,0.00,0,WeatherHawk,2013-11-16 01:45:00,
2013-11-15 20:50:00,81.2,71.3,30.48,ENE,75,0.0,-999.0,72,0.00,,,0.00,0,WeatherHawk,2013-11-16 01:50:00,
2013-11-15 20:55:00,81.1,70.8,30.47,ESE,110,0.0,-999.0,71,0.00,,,0.00,0,WeatherHawk,2013-11-16 01:55:00,
2013-11-15 21:00:00,81.2,70.0,30.47,NNW,328,3.0,-999.0,69,0.00,,,0.00,0,WeatherHawk,2013-11-16 02:00:00,
2013-11-15 21:05:00,81.2,69.6,30.47,North,10,0.0,-999.0,68,0.00,,,0.00,0,WeatherHawk,2013-11-16 02:05:00,
2013-11-15 21:10:00,80.9,69.3,30.48,ESE,104,2.0,-999.0,68,0.00,,,0.00,0,WeatherHawk,2013-11-16 02:10:00,
2013-11-15 21:15:00,80.9,69.7,30.47,ENE,78,0.0,-999.0,69,0.00,,,0.00,0,WeatherHawk,2013-11-16 02:15:00,
2013-11-15 21:20:00,80.9,69.7,30.48,NNE,17,0.0,-999.0,69,0.00,,,0.00,0,WeatherHawk,2013-11-16 02:20:00,
2013-11-15 21:25:00,81.0,69.9,30.49,NNE,30,0.0,-999.0,69,0.00,,,0.00,0,WeatherHawk,2013-11-16 02:25:00,
2013-11-15 21:30:00,81.1,69.5,30.47,North,7,0.0,-999.0,68,0.00,,,0.00,0,WeatherHawk,2013-11-16 02:30:00,
2013-11-15 21:35:00,81.1,69.5,30.48,NNE,21,1.0,-999.0,68,0.00,,,0.00,0,WeatherHawk,2013-11-16 02:35:00,
2013-11-15 21:45:00,81.0,68.5,30.50,NNE,12,1.0,-999.0,66,0.00,,,0.00,0,WeatherHawk,2013-11-16 02:45:00,
2013-11-15 21:50:00,81.2,68.7,30.48,North,11,0.0,-999.0,66,0.00,,,0.00,0,WeatherHawk,2013-11-16 02:50:00,
2013-11-15 21:55:00,81.2,68.7,30.48,NE,51,1.0,-999.0,66,0.00,,,0.00,0,WeatherHawk,2013-11-16 02:55:00,
2013-11-15 22:00:00,80.9,68.5,30.49,North,4,1.0,-999.0,66,0.00,,,0.00,0,WeatherHawk,2013-11-16 03:00:00,
2013-11-15 22:05:00,80.9,68.4,30.49,NE,39,2.0,-999.0,66,0.00,,,0.00,0,WeatherHawk,2013-11-16 03:05:00,
2013-11-15 22:10:00,81.1,69.1,30.49,ENE,69,1.0,-999.0,67,0.00,,,0.00,0,WeatherHawk,2013-11-16 03:10:00,
2013-11-15 22:15:00,81.0,69.4,30.47,NNE,31,4.0,-999.0,68,0.00,,,0.00,0,WeatherHawk,2013-11-16 03:15:00,
2013-11-15 22:20:00,80.8,70.1,30.48,North,1,0.0,-999.0,70,0.00,,,0.00,0,WeatherHawk,2013-11-16 03:20:00,
2013-11-15 22:25:00,81.0,70.6,30.49,North,3,0.0,-999.0,71,0.00,,,0.00,0,WeatherHawk,2013-11-16 03:25:00,
2013-11-15 22:30:00,80.6,70.3,30.48,ESE,109,0.0,-999.0,71,0.00,,,0.00,0,WeatherHawk,2013-11-16 03:30:00,
2013-11-15 22:35:00,80.9,71.0,30.49,NNE,31,0.0,-999.0,72,0.00,,,0.00,0,WeatherHawk,2013-11-16 03:35:00,
2013-11-15 22:40:00,80.9,71.4,30.49,ENE,78,2.0,-999.0,73,0.00,,,0.00,0,WeatherHawk,2013-11-16 03:40:00,
2013-11-15 22:45:00,80.9,71.4,30.49,NE,52,2.0,-999.0,73,0.00,,,0.00,0,WeatherHawk,2013-11-16 03:45:00,
2013-11-15 22:50:00,80.7,71.6,30.48,East,80,0.0,-999.0,74,0.00,,,0.00,0,WeatherHawk,2013-11-16 03:50:00,
2013-11-15 22:55:00,80.8,71.7,30.49,ENE,65,0.0,-999.0,74,0.00,,,0.00,0,WeatherHawk,2013-11-16 03:55:00,
2013-11-15 23:00:00,81.1,72.0,30.49,North,350,3.0,-999.0,74,0.00,,,0.00,0,WeatherHawk,2013-11-16 04:00:00,
2013-11-15 23:05:00,81.1,71.6,30.49,ENE,62,0.0,-999.0,73,0.00,,,0.00,0,WeatherHawk,2013-11-16 04:05:00,
2013-11-15 23:10:00,81.2,71.7,30.49,NNE,21,2.0,-999.0,73,0.00,,,0.00,0,WeatherHawk,2013-11-16 04:10:00,
2013-11-15 23:15:00,81.3,71.8,30.49,ENE,61,2.0,-999.0,73,0.00,,,0.00,0,WeatherHawk,2013-11-16 04:15:00,
2013-11-15 23:20:00,81.3,71.4,30.48,NNW,332,0.0,-999.0,72,0.00,,,0.00,0,WeatherHawk,2013-11-16 04:20:00,
2013-11-15 23:25:00,80.8,70.9,30.48,WSW,256,0.0,-999.0,72,0.00,,,0.00,0,WeatherHawk,2013-11-16 04:25:00,
2013-11-15 23:30:00,80.8,70.5,30.48,East,95,0.0,-999.0,71,0.00,,,0.00,0,WeatherHawk,2013-11-16 04:30:00,
2013-11-15 23:35:00,80.9,70.5,30.48,NE,38,0.0,-999.0,71,0.00,,,0.00,0,WeatherHawk,2013-11-16 04:35:00,
2013-11-15 23:40:00,80.5,69.4,30.49,WSW,252,0.0,-999.0,69,0.00,,,0.00,0,WeatherHawk,2013-11-16 04:40:00,
2013-11-15 23:45:00,81.2,70.0,30.48,NE,41,0.0,-999.0,69,0.00,,,0.00,0,WeatherHawk,2013-11-16 04:45:00,
2013-11-15 23:50:00,81.0,69.8,30.48,NNW,340,0.0,-999.0,69,0.00,,,0.00,0,WeatherHawk,2013-11-16 04:50:00,
2013-11-15 23:55:00,81.0,69.8,30.48,NNE,22,0.0,-999.0,69,0.00,,,0.00,0,WeatherHawk,2013-11-16 04:55:00,